Weather in Krivyye Ozera

Russia / Arkhangel'skaya Oblast'     64°53′00″N   43°14′16″E
temp.,
°C
wind,
m/s
gust,
m/s
humid.,
%
clouds,
%
prec.,
mm/h
press.,
hPa
HPBL,
m
15 august, mon
mon1500:00+11w27898 0.0 1019127
03:00+9wnw22928 0.0 102029
06:00+12wnw25819 0.0 1021152
09:00+18nw245866 0.0 1022788
12:00+21nw354228 0.0 10231866
15:00+22nnw2543100 0.0 10231801
18:00+19e235910 0.0 1023104
21:00+13ene227640 0.0 102421
16 august, tue
tue1600:00+11ene228340 0.0 102434
03:00+10ene2284100 0.0 102428
06:00+12n1276100 0.0 102580
09:00+12ese1291100 1.4 102596
12:00+14sse2494100 1.1 1024166
15:00+22se245912 1.1 1023730
18:00+22e34665 0.0 1022162
21:00+15sse25955 0.1 102394
17 august, wed
wed1700:00+15ssw22957 0.0 102227
03:00+15sw229584 0.0 102227
06:00+17sw238751 0.0 102290
09:00+23sw24585 0.0 1022442
12:00+27sw34441 0.0 10211319
15:00+28sw343919 0.0 10202135
18:00+26ssw22545 0.0 102053
21:00+22s2363100 0.0 102051
18 august, thu
thu1800:00+18sw227813 0.0 102027
03:00+19s257272 0.0 1021121
06:00+18ssw26763 0.0 1021153
09:00+24ssw36540 0.0 1021553
12:00+28sw46420 0.0 10211637
15:00+29sw46374 0.0 10212193
18:00+26ssw37490 0.0 1021374
21:00+20ssw38695 0.0 1022148
19 august, fri
fri1900:00+19ssw3117338 0.0 1022225
03:00+20sw31066100 0.1 1022324
06:00+18sw288363 0.4 1023215
09:00+22sw366591 0.4 1023376
12:00+27wsw364687 0.1 10231348
15:00+27wsw3649100 0.3 10231302
18:00+21w127487 0.1 102330
21:00+19ssw228667 0.9 102327